User: anonymous   Login
Location: Unspecified
(0.0000°N, 0.0000°E)
Time: 01:08:22
(UTC+00:00)
Language:

Kosmos-1339 - Orbit

View from above orbital plane
View from above orbital plane
View from above satellite
View from above satellite

Ground track
Ground track

The orbit data is extracted from the following two-line orbital elements,

1 13065U 82012A   18200.46102029 +.00000032 +00000-0 +18279-4 0  9999
2 13065 082.9021 315.0846 0042176 302.3422 057.3653 13.75506071827283
Epoch (UTC): 19 July 2018 11:03:52
Eccentricity: 0.0042176
inclination: 82.9021°
perigee height: 949 km
apogee height: 1011 km
right ascension of ascending node: 315.0846°
argument of perigee: 302.3422°
revolutions per day: 13.75506071
mean anomaly at epoch: 57.3653°
orbit number at epoch: 82728

The dashed part of the orbit path shows where the satellite is in the earth's shadow,  

DLR